GFSNIL_prec_pwat_000.txt.gz
Precipitable_Water
0.54 0.50 0.47 0.47 0.44 0.43 0.40 0.40 0.40 0.38 0.36 0.33 0.31 0.29 0.28 0.26 0.26 0.27 0.29 0.30 0.33 0.35
0.52 0.48 0.46 0.45 0.43 0.40 0.39 0.38 0.35 0.34 0.31 0.28 0.28 0.27 0.27 0.26 0.27 0.29 0.30 0.31 0.34 0.36
0.50 0.47 0.45 0.42 0.40 0.39 0.38 0.36 0.33 0.29 0.28 0.27 0.27 0.27 0.27 0.27 0.27 0.28 0.29 0.30 0.31 0.33
0.46 0.44 0.43 0.42 0.40 0.38 0.36 0.32 0.28 0.27 0.26 0.26 0.26 0.27 0.27 0.27 0.26 0.26 0.26 0.27 0.28 0.30
0.44 0.44 0.42 0.39 0.38 0.36 0.32 0.29 0.28 0.27 0.26 0.25 0.24 0.23 0.23 0.22 0.23 0.23 0.23 0.24 0.26 0.26
0.44 0.41 0.40 0.38 0.36 0.32 0.29 0.27 0.26 0.24 0.22 0.21 0.20 0.20 0.21 0.21 0.22 0.24 0.25 0.26 0.27 0.27
0.41 0.41 0.38 0.35 0.32 0.29 0.27 0.24 0.21 0.20 0.19 0.19 0.19 0.20 0.21 0.22 0.24 0.25 0.26 0.28 0.29 0.29
0.40 0.38 0.35 0.32 0.29 0.26 0.23 0.20 0.19 0.18 0.17 0.18 0.20 0.21 0.23 0.24 0.26 0.27 0.29 0.31 0.33 0.33
0.37 0.35 0.33 0.30 0.25 0.21 0.18 0.16 0.16 0.16 0.17 0.19 0.21 0.23 0.26 0.28 0.29 0.31 0.32 0.33 0.35 0.36
0.36 0.33 0.31 0.26 0.20 0.16 0.15 0.15 0.16 0.17 0.20 0.21 0.24 0.28 0.30 0.32 0.34 0.34 0.34 0.35 0.35 0.35
0.34 0.31 0.27 0.20 0.15 0.14 0.15 0.16 0.17 0.19 0.22 0.24 0.28 0.30 0.32 0.34 0.34 0.35 0.35 0.36 0.36 0.36
0.32 0.27 0.20 0.15 0.14 0.15 0.17 0.17 0.19 0.21 0.24 0.27 0.30 0.33 0.33 0.34 0.34 0.34 0.35 0.36 0.37 0.37
0.27 0.19 0.16 0.14 0.15 0.17 0.17 0.19 0.21 0.24 0.28 0.30 0.31 0.33 0.35 0.36 0.36 0.34 0.34 0.36 0.36 0.37
0.19 0.17 0.16 0.15 0.17 0.17 0.19 0.21 0.24 0.27 0.30 0.31 0.34 0.35 0.36 0.38 0.36 0.35 0.34 0.34 0.35 0.37

GFSNIL_prec_pwat_003.txt.gz
Precipitable_Water
0.61 0.61 0.57 0.53 0.53 0.53 0.48 0.48 0.46 0.43 0.42 0.42 0.41 0.40 0.38 0.35 0.33 0.32 0.31 0.31 0.30 0.31
0.62 0.58 0.53 0.54 0.54 0.51 0.48 0.45 0.42 0.43 0.42 0.40 0.39 0.37 0.34 0.31 0.30 0.31 0.31 0.31 0.32 0.31
0.58 0.56 0.53 0.53 0.52 0.49 0.46 0.46 0.43 0.39 0.38 0.35 0.33 0.31 0.30 0.30 0.30 0.29 0.30 0.30 0.30 0.30
0.55 0.52 0.53 0.50 0.47 0.47 0.46 0.43 0.40 0.36 0.34 0.32 0.30 0.29 0.28 0.27 0.28 0.29 0.29 0.29 0.29 0.28
0.50 0.49 0.49 0.49 0.48 0.46 0.43 0.40 0.38 0.36 0.33 0.30 0.28 0.27 0.26 0.25 0.25 0.24 0.24 0.24 0.25 0.26
0.47 0.49 0.50 0.48 0.46 0.43 0.39 0.38 0.36 0.32 0.29 0.26 0.25 0.24 0.24 0.23 0.23 0.24 0.24 0.25 0.26 0.27
0.50 0.49 0.47 0.46 0.43 0.40 0.40 0.36 0.32 0.27 0.24 0.22 0.22 0.22 0.22 0.22 0.23 0.24 0.26 0.28 0.29 0.29
0.49 0.47 0.46 0.43 0.41 0.40 0.38 0.32 0.26 0.21 0.20 0.20 0.21 0.21 0.21 0.22 0.23 0.25 0.25 0.27 0.29 0.31
0.47 0.45 0.41 0.40 0.39 0.37 0.31 0.24 0.19 0.19 0.19 0.20 0.21 0.22 0.23 0.25 0.25 0.27 0.28 0.29 0.31 0.33
0.43 0.40 0.39 0.38 0.36 0.29 0.22 0.19 0.18 0.19 0.20 0.20 0.22 0.24 0.25 0.27 0.29 0.30 0.32 0.32 0.33 0.34
0.39 0.38 0.37 0.33 0.24 0.19 0.18 0.17 0.18 0.20 0.21 0.22 0.24 0.26 0.28 0.31 0.33 0.33 0.33 0.33 0.34 0.34
0.37 0.35 0.29 0.20 0.18 0.18 0.17 0.18 0.19 0.20 0.22 0.23 0.25 0.29 0.31 0.33 0.34 0.33 0.33 0.34 0.36 0.37
0.34 0.29 0.20 0.18 0.17 0.17 0.18 0.19 0.21 0.21 0.25 0.27 0.29 0.31 0.34 0.35 0.35 0.33 0.34 0.36 0.36 0.36
0.28 0.20 0.19 0.18 0.17 0.18 0.19 0.20 0.21 0.24 0.27 0.29 0.31 0.33 0.36 0.37 0.35 0.34 0.33 0.33 0.34 0.37

GFSNIL_prec_pwat_006.txt.gz
Precipitable_Water
0.66 0.63 0.62 0.63 0.62 0.58 0.55 0.53 0.55 0.56 0.53 0.48 0.47 0.48 0.44 0.41 0.39 0.37 0.35 0.34 0.34 0.35
0.65 0.63 0.61 0.62 0.61 0.58 0.53 0.52 0.53 0.55 0.51 0.51 0.46 0.43 0.41 0.38 0.36 0.35 0.34 0.33 0.33 0.32
0.63 0.63 0.62 0.59 0.57 0.54 0.55 0.57 0.54 0.53 0.50 0.44 0.41 0.39 0.37 0.35 0.33 0.31 0.31 0.30 0.30 0.31
0.59 0.59 0.58 0.56 0.53 0.57 0.55 0.55 0.53 0.49 0.42 0.40 0.39 0.36 0.33 0.31 0.30 0.28 0.26 0.27 0.26 0.26
0.55 0.55 0.52 0.48 0.52 0.54 0.52 0.52 0.47 0.42 0.41 0.39 0.36 0.33 0.30 0.26 0.26 0.25 0.24 0.24 0.24 0.24
0.51 0.49 0.46 0.50 0.51 0.54 0.50 0.45 0.43 0.42 0.40 0.36 0.31 0.27 0.25 0.24 0.23 0.23 0.23 0.23 0.23 0.23
0.46 0.46 0.50 0.50 0.50 0.49 0.45 0.43 0.42 0.41 0.35 0.29 0.24 0.22 0.22 0.23 0.23 0.23 0.24 0.25 0.26 0.26
0.51 0.52 0.53 0.49 0.47 0.44 0.42 0.42 0.39 0.31 0.25 0.21 0.21 0.21 0.22 0.23 0.23 0.23 0.23 0.25 0.26 0.26
0.56 0.50 0.48 0.46 0.42 0.41 0.39 0.33 0.25 0.21 0.20 0.20 0.21 0.22 0.23 0.24 0.24 0.25 0.25 0.25 0.28 0.30
0.53 0.46 0.44 0.41 0.40 0.37 0.30 0.23 0.20 0.19 0.20 0.21 0.22 0.23 0.25 0.26 0.27 0.27 0.28 0.30 0.31 0.32
0.45 0.41 0.40 0.38 0.35 0.27 0.22 0.20 0.19 0.19 0.21 0.21 0.22 0.24 0.26 0.27 0.29 0.31 0.32 0.33 0.33 0.33
0.40 0.36 0.35 0.32 0.24 0.20 0.19 0.18 0.19 0.21 0.21 0.21 0.24 0.27 0.29 0.30 0.32 0.33 0.34 0.35 0.35 0.36
0.35 0.34 0.28 0.22 0.19 0.19 0.19 0.19 0.20 0.20 0.23 0.26 0.26 0.29 0.31 0.33 0.34 0.32 0.34 0.34 0.35 0.35
0.32 0.26 0.22 0.20 0.19 0.19 0.19 0.20 0.20 0.22 0.24 0.26 0.30 0.31 0.33 0.34 0.34 0.33 0.32 0.33 0.33 0.35

GFSNIL_prec_pwat_009.txt.gz
Precipitable_Water
0.73 0.72 0.70 0.68 0.64 0.61 0.59 0.59 0.59 0.60 0.60 0.58 0.58 0.60 0.60 0.58 0.46 0.41 0.40 0.38 0.36 0.35
0.65 0.64 0.66 0.65 0.62 0.60 0.58 0.58 0.59 0.60 0.59 0.59 0.61 0.59 0.51 0.46 0.41 0.38 0.36 0.35 0.35 0.33
0.60 0.60 0.61 0.61 0.59 0.58 0.59 0.59 0.61 0.63 0.62 0.60 0.53 0.49 0.43 0.40 0.38 0.36 0.34 0.32 0.31 0.31
0.56 0.56 0.57 0.57 0.57 0.59 0.61 0.62 0.59 0.58 0.54 0.50 0.45 0.43 0.40 0.38 0.35 0.32 0.29 0.28 0.27 0.26
0.53 0.52 0.52 0.53 0.54 0.55 0.55 0.52 0.53 0.50 0.47 0.43 0.42 0.41 0.37 0.33 0.30 0.26 0.24 0.24 0.24 0.23
0.48 0.49 0.49 0.49 0.49 0.49 0.49 0.50 0.47 0.43 0.41 0.41 0.38 0.33 0.28 0.24 0.23 0.22 0.22 0.22 0.22 0.22
0.47 0.48 0.47 0.48 0.48 0.47 0.48 0.44 0.42 0.40 0.37 0.31 0.27 0.23 0.22 0.22 0.22 0.23 0.23 0.24 0.25 0.25
0.52 0.51 0.50 0.50 0.48 0.47 0.44 0.41 0.40 0.35 0.30 0.24 0.22 0.21 0.22 0.24 0.24 0.24 0.23 0.23 0.24 0.25
0.54 0.54 0.53 0.51 0.49 0.46 0.40 0.39 0.33 0.26 0.22 0.21 0.21 0.23 0.25 0.25 0.24 0.23 0.23 0.23 0.25 0.27
0.57 0.54 0.50 0.48 0.42 0.38 0.35 0.29 0.22 0.20 0.20 0.20 0.22 0.23 0.23 0.23 0.23 0.24 0.26 0.27 0.28 0.30
0.50 0.47 0.41 0.38 0.35 0.31 0.24 0.21 0.19 0.19 0.20 0.21 0.22 0.22 0.23 0.25 0.27 0.29 0.30 0.31 0.31 0.32
0.39 0.37 0.35 0.32 0.26 0.22 0.21 0.19 0.19 0.20 0.20 0.21 0.22 0.23 0.26 0.28 0.30 0.31 0.32 0.33 0.34 0.34
0.36 0.35 0.29 0.24 0.22 0.21 0.20 0.19 0.19 0.19 0.22 0.22 0.22 0.25 0.27 0.30 0.32 0.31 0.31 0.32 0.33 0.33
0.35 0.27 0.24 0.22 0.21 0.20 0.19 0.19 0.19 0.20 0.20 0.22 0.25 0.26 0.31 0.33 0.33 0.32 0.31 0.31 0.32 0.34

GFSNIL_prec_pwat_012.txt.gz
Precipitable_Water
0.65 0.64 0.64 0.64 0.63 0.62 0.65 0.63 0.63 0.63 0.64 0.63 0.65 0.67 0.68 0.65 0.64 0.62 0.54 0.48 0.45 0.40
0.61 0.60 0.59 0.59 0.60 0.60 0.60 0.60 0.61 0.64 0.65 0.69 0.71 0.69 0.64 0.56 0.50 0.49 0.46 0.42 0.39 0.37
0.58 0.57 0.57 0.55 0.53 0.54 0.57 0.59 0.62 0.66 0.69 0.66 0.62 0.56 0.52 0.48 0.46 0.42 0.40 0.38 0.36 0.34
0.54 0.53 0.51 0.49 0.50 0.52 0.55 0.58 0.64 0.65 0.56 0.52 0.48 0.47 0.45 0.43 0.41 0.38 0.36 0.34 0.31 0.28
0.49 0.48 0.47 0.48 0.51 0.53 0.53 0.55 0.54 0.51 0.47 0.43 0.41 0.41 0.38 0.35 0.33 0.29 0.25 0.23 0.23 0.22
0.45 0.45 0.45 0.47 0.49 0.50 0.48 0.47 0.46 0.44 0.41 0.39 0.38 0.36 0.32 0.27 0.24 0.23 0.22 0.22 0.22 0.22
0.42 0.43 0.45 0.47 0.47 0.47 0.47 0.45 0.44 0.41 0.39 0.37 0.33 0.28 0.24 0.23 0.22 0.22 0.22 0.23 0.23 0.23
0.47 0.49 0.49 0.48 0.49 0.50 0.51 0.46 0.42 0.39 0.34 0.29 0.26 0.23 0.22 0.22 0.22 0.22 0.21 0.22 0.22 0.22
0.56 0.54 0.54 0.54 0.50 0.47 0.42 0.39 0.36 0.31 0.26 0.22 0.21 0.21 0.23 0.23 0.22 0.21 0.20 0.19 0.22 0.25
0.55 0.51 0.46 0.45 0.44 0.41 0.37 0.32 0.27 0.22 0.21 0.20 0.21 0.21 0.22 0.23 0.21 0.20 0.22 0.24 0.27 0.28
0.46 0.45 0.43 0.39 0.36 0.32 0.28 0.23 0.21 0.20 0.20 0.19 0.20 0.22 0.22 0.21 0.22 0.23 0.26 0.29 0.31 0.31
0.39 0.37 0.35 0.34 0.29 0.24 0.22 0.20 0.19 0.19 0.19 0.19 0.19 0.20 0.22 0.23 0.24 0.26 0.30 0.32 0.32 0.32
0.38 0.36 0.31 0.26 0.23 0.22 0.21 0.19 0.20 0.19 0.19 0.19 0.18 0.20 0.22 0.25 0.29 0.29 0.30 0.31 0.32 0.33
0.33 0.28 0.25 0.23 0.22 0.21 0.20 0.19 0.19 0.18 0.18 0.18 0.19 0.21 0.25 0.30 0.31 0.31 0.30 0.31 0.31 0.33

GFSNIL_prec_pwat_015.txt.gz
Precipitable_Water
0.65 0.61 0.58 0.58 0.57 0.57 0.56 0.55 0.56 0.57 0.61 0.64 0.68 0.68 0.71 0.71 0.69 0.69 0.67 0.63 0.58 0.52
0.57 0.55 0.53 0.53 0.52 0.50 0.50 0.51 0.53 0.57 0.60 0.62 0.64 0.66 0.68 0.64 0.59 0.57 0.54 0.51 0.48 0.45
0.51 0.47 0.47 0.46 0.45 0.46 0.49 0.52 0.55 0.56 0.59 0.61 0.63 0.62 0.58 0.53 0.49 0.47 0.47 0.46 0.44 0.42
0.44 0.43 0.43 0.43 0.44 0.47 0.50 0.52 0.53 0.54 0.56 0.55 0.50 0.48 0.46 0.44 0.41 0.38 0.37 0.36 0.32 0.29
0.44 0.40 0.39 0.40 0.43 0.47 0.48 0.51 0.52 0.50 0.45 0.44 0.44 0.43 0.40 0.38 0.36 0.32 0.29 0.26 0.24 0.22
0.41 0.40 0.39 0.41 0.43 0.46 0.48 0.48 0.47 0.46 0.43 0.43 0.42 0.40 0.37 0.34 0.30 0.26 0.24 0.23 0.22 0.21
0.43 0.42 0.43 0.45 0.46 0.46 0.49 0.50 0.49 0.47 0.44 0.41 0.38 0.34 0.31 0.26 0.23 0.22 0.22 0.22 0.21 0.21
0.47 0.49 0.49 0.51 0.53 0.52 0.51 0.47 0.43 0.39 0.36 0.33 0.30 0.25 0.24 0.23 0.22 0.21 0.20 0.20 0.20 0.20
0.52 0.53 0.52 0.50 0.47 0.46 0.45 0.45 0.39 0.34 0.31 0.27 0.24 0.24 0.23 0.22 0.21 0.20 0.18 0.17 0.18 0.20
0.46 0.45 0.47 0.46 0.46 0.45 0.40 0.35 0.31 0.26 0.24 0.22 0.21 0.22 0.22 0.22 0.20 0.19 0.19 0.20 0.21 0.23
0.46 0.46 0.43 0.38 0.36 0.34 0.31 0.26 0.23 0.22 0.21 0.21 0.21 0.20 0.19 0.19 0.19 0.20 0.21 0.23 0.27 0.29
0.40 0.39 0.36 0.33 0.30 0.27 0.24 0.22 0.21 0.22 0.21 0.19 0.18 0.18 0.18 0.19 0.20 0.21 0.24 0.29 0.31 0.31
0.35 0.34 0.31 0.27 0.24 0.23 0.23 0.22 0.21 0.20 0.20 0.19 0.18 0.19 0.19 0.20 0.22 0.24 0.28 0.30 0.31 0.32
0.33 0.29 0.25 0.24 0.23 0.22 0.21 0.21 0.20 0.19 0.18 0.18 0.19 0.19 0.20 0.22 0.26 0.29 0.29 0.29 0.30 0.33

GFSNIL_prec_pwat_018.txt.gz
Precipitable_Water
0.61 0.58 0.54 0.49 0.46 0.45 0.45 0.44 0.47 0.46 0.47 0.50 0.53 0.57 0.60 0.61 0.62 0.64 0.63 0.60 0.60 0.59
0.59 0.54 0.46 0.43 0.43 0.44 0.45 0.47 0.49 0.51 0.51 0.52 0.54 0.57 0.59 0.60 0.60 0.60 0.58 0.57 0.56 0.54
0.51 0.49 0.48 0.46 0.42 0.43 0.47 0.50 0.51 0.52 0.53 0.52 0.54 0.55 0.56 0.54 0.54 0.52 0.51 0.50 0.47 0.44
0.47 0.45 0.43 0.42 0.42 0.44 0.48 0.50 0.50 0.51 0.51 0.51 0.50 0.46 0.45 0.45 0.45 0.42 0.40 0.39 0.35 0.32
0.48 0.44 0.40 0.39 0.41 0.45 0.46 0.47 0.47 0.51 0.49 0.47 0.45 0.45 0.43 0.41 0.40 0.37 0.34 0.32 0.29 0.26
0.42 0.41 0.41 0.41 0.43 0.44 0.46 0.49 0.51 0.52 0.49 0.47 0.46 0.43 0.40 0.37 0.34 0.31 0.28 0.25 0.23 0.23
0.43 0.40 0.42 0.45 0.48 0.50 0.52 0.50 0.50 0.46 0.43 0.41 0.38 0.35 0.32 0.30 0.27 0.24 0.23 0.23 0.22 0.21
0.43 0.45 0.48 0.47 0.48 0.49 0.47 0.45 0.45 0.41 0.37 0.34 0.32 0.30 0.27 0.25 0.23 0.21 0.20 0.20 0.19 0.19
0.46 0.48 0.45 0.45 0.45 0.45 0.46 0.48 0.44 0.37 0.32 0.30 0.26 0.25 0.24 0.24 0.23 0.21 0.20 0.18 0.18 0.19
0.49 0.47 0.47 0.46 0.43 0.42 0.38 0.33 0.30 0.27 0.25 0.23 0.23 0.24 0.23 0.22 0.20 0.19 0.19 0.19 0.19 0.20
0.41 0.40 0.39 0.37 0.34 0.32 0.29 0.26 0.24 0.23 0.23 0.23 0.22 0.22 0.21 0.20 0.20 0.20 0.20 0.20 0.22 0.25
0.36 0.34 0.33 0.30 0.28 0.25 0.24 0.23 0.23 0.23 0.22 0.21 0.20 0.20 0.20 0.21 0.20 0.19 0.19 0.23 0.28 0.29
0.34 0.32 0.29 0.26 0.24 0.24 0.24 0.23 0.23 0.21 0.21 0.20 0.19 0.20 0.21 0.21 0.20 0.19 0.22 0.27 0.30 0.31
0.34 0.32 0.30 0.26 0.24 0.22 0.21 0.20 0.19 0.19 0.20 0.20 0.20 0.20 0.20 0.20 0.21 0.22 0.25 0.28 0.30 0.32

GFSNIL_prec_pwat_021.txt.gz
Precipitable_Water
0.61 0.57 0.52 0.48 0.48 0.47 0.45 0.45 0.48 0.49 0.50 0.50 0.52 0.54 0.54 0.54 0.56 0.56 0.55 0.55 0.55 0.55
0.53 0.50 0.49 0.50 0.48 0.45 0.44 0.44 0.48 0.51 0.50 0.52 0.53 0.54 0.54 0.54 0.54 0.55 0.54 0.53 0.53 0.53
0.57 0.56 0.54 0.48 0.43 0.42 0.43 0.47 0.49 0.51 0.52 0.51 0.53 0.54 0.52 0.49 0.48 0.48 0.49 0.49 0.49 0.49
0.56 0.51 0.44 0.39 0.38 0.39 0.45 0.49 0.50 0.49 0.50 0.51 0.52 0.52 0.49 0.48 0.48 0.46 0.44 0.44 0.41 0.38
0.49 0.44 0.37 0.37 0.39 0.45 0.46 0.49 0.51 0.52 0.52 0.52 0.50 0.49 0.46 0.43 0.41 0.39 0.36 0.34 0.31 0.28
0.43 0.40 0.40 0.42 0.43 0.46 0.49 0.50 0.51 0.50 0.46 0.45 0.43 0.40 0.37 0.35 0.34 0.32 0.29 0.27 0.25 0.25
0.43 0.43 0.45 0.46 0.45 0.46 0.47 0.46 0.45 0.45 0.42 0.39 0.36 0.34 0.33 0.31 0.28 0.25 0.24 0.24 0.23 0.23
0.43 0.46 0.45 0.44 0.46 0.46 0.45 0.45 0.45 0.44 0.39 0.35 0.31 0.29 0.28 0.26 0.25 0.24 0.23 0.23 0.23 0.22
0.47 0.49 0.48 0.46 0.43 0.43 0.44 0.41 0.35 0.30 0.29 0.27 0.26 0.25 0.25 0.24 0.23 0.22 0.22 0.21 0.21 0.21
0.40 0.40 0.41 0.40 0.36 0.33 0.30 0.29 0.27 0.25 0.25 0.24 0.24 0.23 0.23 0.23 0.23 0.22 0.21 0.20 0.20 0.20
0.35 0.34 0.33 0.32 0.30 0.28 0.26 0.25 0.24 0.24 0.23 0.23 0.22 0.22 0.22 0.22 0.22 0.22 0.21 0.21 0.21 0.22
0.34 0.33 0.32 0.31 0.30 0.26 0.24 0.22 0.21 0.21 0.20 0.20 0.20 0.20 0.21 0.22 0.22 0.21 0.20 0.22 0.23 0.25
0.34 0.33 0.32 0.28 0.22 0.21 0.21 0.20 0.20 0.19 0.20 0.21 0.21 0.21 0.22 0.22 0.21 0.20 0.20 0.22 0.24 0.28
0.33 0.30 0.23 0.21 0.21 0.20 0.19 0.20 0.20 0.20 0.22 0.22 0.22 0.23 0.22 0.21 0.21 0.21 0.21 0.21 0.25 0.30

GFSNIL_prec_pwat_024.txt.gz
Precipitable_Water
0.58 0.56 0.54 0.54 0.54 0.50 0.46 0.45 0.47 0.48 0.49 0.50 0.51 0.52 0.53 0.53 0.53 0.53 0.52 0.51 0.51 0.51
0.58 0.60 0.58 0.55 0.50 0.43 0.43 0.44 0.47 0.51 0.52 0.54 0.55 0.53 0.53 0.52 0.51 0.51 0.51 0.51 0.51 0.50
0.63 0.61 0.55 0.48 0.42 0.40 0.41 0.45 0.49 0.52 0.51 0.51 0.52 0.53 0.53 0.53 0.54 0.51 0.50 0.49 0.49 0.49
0.54 0.51 0.46 0.42 0.40 0.43 0.47 0.48 0.48 0.50 0.51 0.50 0.50 0.51 0.50 0.49 0.48 0.46 0.44 0.44 0.42 0.40
0.48 0.46 0.41 0.41 0.44 0.46 0.46 0.48 0.48 0.50 0.49 0.48 0.47 0.48 0.47 0.42 0.41 0.38 0.36 0.36 0.34 0.31
0.44 0.43 0.43 0.44 0.44 0.45 0.45 0.46 0.47 0.47 0.45 0.43 0.40 0.39 0.38 0.36 0.35 0.34 0.31 0.29 0.27 0.26
0.43 0.42 0.45 0.46 0.46 0.46 0.46 0.45 0.45 0.45 0.42 0.41 0.38 0.35 0.32 0.31 0.29 0.28 0.27 0.27 0.27 0.26
0.46 0.47 0.48 0.49 0.47 0.48 0.46 0.44 0.42 0.37 0.33 0.31 0.29 0.27 0.26 0.25 0.24 0.24 0.23 0.24 0.25 0.25
0.41 0.42 0.43 0.43 0.41 0.37 0.34 0.32 0.32 0.30 0.28 0.27 0.27 0.26 0.24 0.23 0.22 0.22 0.22 0.23 0.24 0.24
0.38 0.36 0.35 0.34 0.34 0.33 0.32 0.29 0.25 0.24 0.24 0.23 0.24 0.22 0.21 0.20 0.20 0.20 0.22 0.23 0.23 0.22
0.36 0.34 0.34 0.33 0.33 0.30 0.24 0.22 0.22 0.22 0.22 0.22 0.22 0.21 0.21 0.20 0.21 0.23 0.23 0.23 0.22 0.22
0.36 0.33 0.31 0.30 0.24 0.22 0.21 0.21 0.20 0.21 0.21 0.21 0.22 0.24 0.23 0.22 0.23 0.23 0.22 0.22 0.23 0.24
0.32 0.31 0.28 0.23 0.21 0.21 0.20 0.20 0.22 0.22 0.24 0.24 0.24 0.25 0.24 0.23 0.22 0.21 0.21 0.22 0.23 0.25
0.32 0.28 0.23 0.22 0.21 0.20 0.20 0.22 0.23 0.23 0.25 0.25 0.25 0.24 0.23 0.22 0.21 0.22 0.21 0.21 0.22 0.25

GFSNIL_prec_pwat_027.txt.gz
Precipitable_Water
0.65 0.63 0.64 0.64 0.62 0.55 0.47 0.44 0.47 0.50 0.52 0.54 0.54 0.55 0.56 0.55 0.52 0.51 0.49 0.49 0.50 0.50
0.68 0.64 0.62 0.60 0.55 0.48 0.46 0.45 0.49 0.50 0.51 0.52 0.55 0.53 0.53 0.52 0.52 0.54 0.50 0.50 0.51 0.50
0.60 0.57 0.55 0.53 0.48 0.46 0.47 0.50 0.48 0.49 0.50 0.50 0.49 0.49 0.49 0.49 0.51 0.50 0.50 0.51 0.50 0.49
0.49 0.51 0.52 0.47 0.46 0.47 0.48 0.46 0.46 0.45 0.45 0.45 0.46 0.46 0.46 0.46 0.46 0.44 0.43 0.43 0.44 0.42
0.47 0.47 0.46 0.45 0.44 0.45 0.44 0.46 0.46 0.47 0.47 0.46 0.45 0.42 0.40 0.39 0.38 0.37 0.36 0.37 0.36 0.33
0.43 0.45 0.44 0.44 0.45 0.45 0.46 0.47 0.49 0.50 0.47 0.44 0.41 0.39 0.38 0.35 0.35 0.32 0.30 0.30 0.29 0.28
0.43 0.44 0.46 0.47 0.46 0.50 0.49 0.47 0.47 0.45 0.41 0.37 0.34 0.32 0.31 0.30 0.28 0.26 0.26 0.26 0.27 0.27
0.40 0.43 0.44 0.45 0.44 0.43 0.42 0.37 0.36 0.35 0.33 0.30 0.27 0.26 0.25 0.24 0.23 0.20 0.20 0.22 0.23 0.25
0.37 0.37 0.37 0.37 0.36 0.36 0.35 0.36 0.32 0.26 0.25 0.25 0.25 0.27 0.25 0.23 0.21 0.19 0.20 0.20 0.22 0.24
0.36 0.34 0.35 0.35 0.34 0.34 0.32 0.27 0.24 0.25 0.25 0.25 0.25 0.26 0.23 0.23 0.22 0.21 0.22 0.24 0.24 0.24
0.35 0.34 0.33 0.32 0.31 0.30 0.24 0.24 0.23 0.24 0.24 0.24 0.25 0.26 0.25 0.25 0.24 0.24 0.25 0.25 0.25 0.24
0.34 0.31 0.30 0.30 0.27 0.24 0.23 0.23 0.23 0.23 0.25 0.24 0.25 0.27 0.26 0.24 0.23 0.23 0.23 0.23 0.25 0.25
0.33 0.31 0.30 0.28 0.24 0.24 0.23 0.23 0.24 0.25 0.24 0.25 0.24 0.26 0.25 0.24 0.23 0.21 0.22 0.23 0.23 0.24
0.33 0.31 0.30 0.25 0.24 0.24 0.23 0.24 0.27 0.25 0.25 0.25 0.27 0.27 0.26 0.26 0.23 0.21 0.23 0.23 0.23 0.25

GFSNIL_prec_pwat_030.txt.gz
Precipitable_Water
0.73 0.71 0.68 0.66 0.63 0.58 0.53 0.50 0.54 0.53 0.52 0.51 0.49 0.51 0.52 0.52 0.51 0.49 0.49 0.46 0.46 0.45
0.65 0.62 0.60 0.59 0.57 0.52 0.50 0.49 0.49 0.47 0.45 0.47 0.47 0.47 0.46 0.45 0.45 0.46 0.48 0.50 0.50 0.49
0.50 0.51 0.51 0.51 0.50 0.48 0.46 0.46 0.44 0.44 0.45 0.44 0.44 0.45 0.44 0.41 0.44 0.44 0.44 0.44 0.43 0.42
0.45 0.46 0.48 0.49 0.50 0.47 0.45 0.43 0.45 0.46 0.44 0.45 0.47 0.46 0.45 0.44 0.43 0.42 0.41 0.40 0.39 0.39
0.47 0.46 0.47 0.47 0.45 0.44 0.44 0.44 0.45 0.46 0.47 0.48 0.45 0.43 0.39 0.38 0.38 0.34 0.34 0.34 0.32 0.30
0.45 0.47 0.46 0.43 0.45 0.42 0.42 0.43 0.45 0.44 0.42 0.43 0.42 0.38 0.34 0.30 0.29 0.28 0.28 0.25 0.21 0.23
0.45 0.44 0.42 0.41 0.41 0.41 0.40 0.41 0.40 0.38 0.36 0.35 0.31 0.27 0.26 0.27 0.27 0.26 0.25 0.22 0.20 0.21
0.42 0.42 0.39 0.37 0.38 0.37 0.35 0.35 0.35 0.33 0.30 0.27 0.26 0.26 0.27 0.26 0.25 0.24 0.22 0.20 0.20 0.21
0.41 0.40 0.37 0.36 0.36 0.35 0.35 0.35 0.31 0.27 0.25 0.25 0.27 0.27 0.26 0.24 0.24 0.24 0.23 0.21 0.22 0.25
0.40 0.39 0.35 0.34 0.35 0.33 0.32 0.30 0.26 0.24 0.24 0.25 0.27 0.26 0.26 0.26 0.26 0.24 0.23 0.23 0.24 0.25
0.35 0.33 0.32 0.35 0.33 0.32 0.30 0.26 0.24 0.23 0.25 0.25 0.25 0.27 0.26 0.26 0.25 0.23 0.23 0.24 0.23 0.23
0.37 0.35 0.34 0.31 0.32 0.31 0.28 0.25 0.23 0.25 0.26 0.25 0.24 0.24 0.26 0.27 0.25 0.23 0.22 0.22 0.23 0.24
0.42 0.39 0.36 0.33 0.32 0.30 0.28 0.25 0.26 0.26 0.27 0.26 0.24 0.27 0.27 0.27 0.27 0.25 0.24 0.23 0.24 0.25
0.37 0.41 0.36 0.32 0.31 0.29 0.28 0.25 0.25 0.26 0.26 0.25 0.26 0.26 0.26 0.27 0.27 0.25 0.23 0.22 0.23 0.25

GFSNIL_prec_pwat_033.txt.gz
Precipitable_Water
0.64 0.63 0.63 0.60 0.55 0.53 0.51 0.50 0.50 0.49 0.48 0.46 0.46 0.44 0.44 0.43 0.42 0.41 0.39 0.40 0.42 0.45
0.58 0.56 0.52 0.51 0.53 0.51 0.51 0.51 0.49 0.47 0.45 0.43 0.41 0.42 0.42 0.40 0.39 0.40 0.40 0.41 0.41 0.40
0.53 0.50 0.49 0.50 0.48 0.48 0.50 0.49 0.47 0.43 0.42 0.42 0.42 0.44 0.45 0.44 0.42 0.41 0.41 0.41 0.40 0.40
0.48 0.49 0.49 0.47 0.47 0.47 0.45 0.43 0.41 0.42 0.44 0.43 0.43 0.42 0.42 0.42 0.40 0.39 0.38 0.38 0.33 0.31
0.48 0.47 0.44 0.45 0.45 0.46 0.40 0.42 0.43 0.43 0.42 0.40 0.40 0.40 0.38 0.36 0.35 0.32 0.27 0.27 0.28 0.27
0.41 0.42 0.41 0.41 0.42 0.40 0.39 0.40 0.40 0.41 0.38 0.36 0.34 0.32 0.31 0.29 0.27 0.26 0.27 0.27 0.26 0.25
0.37 0.39 0.38 0.40 0.40 0.39 0.35 0.35 0.36 0.36 0.35 0.31 0.28 0.27 0.25 0.25 0.25 0.25 0.25 0.25 0.24 0.22
0.38 0.37 0.37 0.39 0.39 0.36 0.32 0.32 0.34 0.33 0.31 0.30 0.27 0.25 0.25 0.26 0.25 0.24 0.23 0.23 0.23 0.23
0.38 0.42 0.44 0.42 0.39 0.36 0.34 0.34 0.30 0.30 0.30 0.26 0.25 0.27 0.27 0.27 0.24 0.23 0.22 0.20 0.21 0.23
0.41 0.40 0.41 0.43 0.42 0.39 0.35 0.33 0.30 0.29 0.29 0.24 0.26 0.28 0.27 0.25 0.24 0.23 0.23 0.22 0.20 0.20
0.39 0.40 0.43 0.47 0.40 0.37 0.33 0.31 0.30 0.29 0.26 0.26 0.27 0.27 0.25 0.26 0.26 0.24 0.24 0.24 0.24 0.23
0.35 0.39 0.45 0.43 0.41 0.37 0.34 0.30 0.29 0.29 0.25 0.26 0.25 0.25 0.26 0.25 0.25 0.25 0.25 0.25 0.24 0.23
0.35 0.38 0.43 0.42 0.37 0.32 0.29 0.30 0.31 0.25 0.27 0.26 0.24 0.26 0.26 0.26 0.25 0.23 0.23 0.24 0.23 0.25
0.36 0.37 0.42 0.38 0.33 0.32 0.30 0.30 0.27 0.24 0.25 0.24 0.25 0.25 0.25 0.25 0.24 0.23 0.22 0.22 0.23 0.25

GFSNIL_prec_pwat_036.txt.gz
Precipitable_Water
0.64 0.62 0.60 0.56 0.54 0.51 0.51 0.52 0.54 0.53 0.50 0.48 0.45 0.43 0.42 0.41 0.41 0.42 0.40 0.38 0.39 0.40
0.61 0.58 0.57 0.54 0.50 0.50 0.51 0.50 0.47 0.46 0.45 0.45 0.45 0.43 0.44 0.42 0.41 0.42 0.41 0.40 0.41 0.41
0.56 0.58 0.55 0.50 0.47 0.46 0.45 0.45 0.43 0.42 0.42 0.42 0.43 0.43 0.42 0.41 0.41 0.39 0.39 0.40 0.39 0.39
0.55 0.50 0.44 0.41 0.40 0.40 0.40 0.39 0.37 0.37 0.39 0.37 0.36 0.37 0.36 0.35 0.35 0.34 0.34 0.32 0.29 0.28
0.40 0.38 0.39 0.40 0.38 0.38 0.36 0.40 0.37 0.34 0.34 0.33 0.32 0.32 0.31 0.28 0.28 0.26 0.26 0.26 0.26 0.26
0.36 0.37 0.40 0.42 0.42 0.41 0.41 0.41 0.39 0.35 0.33 0.33 0.31 0.29 0.29 0.27 0.25 0.25 0.25 0.26 0.26 0.25
0.38 0.37 0.38 0.43 0.43 0.44 0.46 0.42 0.41 0.38 0.33 0.33 0.33 0.31 0.27 0.25 0.25 0.25 0.24 0.23 0.22 0.21
0.40 0.40 0.43 0.43 0.44 0.45 0.47 0.41 0.42 0.38 0.34 0.33 0.31 0.28 0.26 0.24 0.23 0.23 0.22 0.22 0.22 0.22
0.38 0.39 0.38 0.40 0.42 0.40 0.40 0.45 0.37 0.33 0.34 0.31 0.29 0.27 0.26 0.26 0.24 0.23 0.23 0.22 0.22 0.22
0.30 0.31 0.35 0.38 0.37 0.39 0.45 0.41 0.35 0.35 0.32 0.30 0.28 0.27 0.26 0.26 0.25 0.24 0.23 0.23 0.23 0.23
0.31 0.32 0.35 0.35 0.34 0.38 0.41 0.38 0.35 0.32 0.32 0.28 0.28 0.26 0.25 0.25 0.25 0.24 0.23 0.23 0.23 0.23
0.33 0.31 0.32 0.33 0.36 0.37 0.38 0.33 0.32 0.32 0.30 0.28 0.25 0.25 0.24 0.25 0.23 0.21 0.21 0.22 0.23 0.23
0.33 0.32 0.33 0.36 0.38 0.35 0.32 0.33 0.33 0.31 0.29 0.25 0.23 0.22 0.23 0.23 0.21 0.18 0.18 0.21 0.23 0.24
0.33 0.35 0.37 0.38 0.33 0.30 0.32 0.32 0.31 0.26 0.23 0.23 0.22 0.21 0.22 0.21 0.19 0.18 0.20 0.21 0.22 0.24

GFSNIL_prec_pwat_039.txt.gz
Precipitable_Water
0.64 0.60 0.58 0.56 0.54 0.51 0.47 0.47 0.47 0.45 0.43 0.41 0.41 0.40 0.40 0.40 0.41 0.41 0.41 0.40 0.41 0.41
0.58 0.56 0.54 0.50 0.45 0.42 0.42 0.42 0.43 0.43 0.42 0.41 0.41 0.42 0.41 0.38 0.38 0.38 0.38 0.36 0.37 0.39
0.53 0.50 0.46 0.42 0.38 0.40 0.42 0.42 0.41 0.41 0.40 0.40 0.39 0.38 0.38 0.37 0.35 0.33 0.33 0.33 0.33 0.32
0.46 0.43 0.42 0.40 0.40 0.40 0.40 0.41 0.41 0.42 0.41 0.41 0.38 0.35 0.33 0.33 0.32 0.29 0.27 0.26 0.26 0.26
0.40 0.39 0.39 0.40 0.43 0.44 0.43 0.43 0.43 0.43 0.41 0.42 0.38 0.36 0.32 0.31 0.31 0.28 0.25 0.24 0.24 0.24
0.39 0.39 0.40 0.42 0.44 0.46 0.44 0.42 0.42 0.43 0.39 0.38 0.37 0.34 0.33 0.30 0.28 0.25 0.24 0.23 0.22 0.20
0.40 0.41 0.39 0.38 0.39 0.38 0.40 0.41 0.41 0.40 0.39 0.39 0.36 0.34 0.31 0.29 0.25 0.24 0.24 0.23 0.22 0.21
0.32 0.31 0.30 0.32 0.35 0.38 0.39 0.39 0.38 0.43 0.42 0.37 0.35 0.33 0.30 0.27 0.25 0.24 0.22 0.23 0.23 0.22
0.26 0.26 0.27 0.30 0.32 0.33 0.35 0.38 0.40 0.44 0.36 0.37 0.35 0.32 0.30 0.28 0.25 0.24 0.23 0.22 0.22 0.23
0.28 0.28 0.29 0.29 0.31 0.33 0.35 0.37 0.37 0.37 0.38 0.34 0.32 0.32 0.29 0.27 0.26 0.24 0.24 0.23 0.21 0.21
0.28 0.28 0.29 0.30 0.33 0.34 0.37 0.36 0.35 0.33 0.32 0.31 0.31 0.29 0.27 0.25 0.24 0.22 0.21 0.20 0.19 0.19
0.28 0.30 0.30 0.30 0.33 0.35 0.35 0.34 0.31 0.31 0.31 0.30 0.26 0.24 0.24 0.23 0.21 0.19 0.18 0.19 0.20 0.21
0.33 0.32 0.31 0.32 0.34 0.34 0.31 0.31 0.32 0.31 0.30 0.24 0.22 0.22 0.22 0.22 0.20 0.17 0.18 0.19 0.20 0.23
0.34 0.34 0.33 0.35 0.33 0.32 0.32 0.34 0.31 0.28 0.24 0.23 0.22 0.22 0.22 0.22 0.20 0.18 0.18 0.18 0.20 0.24

GFSNIL_prec_pwat_042.txt.gz
Precipitable_Water
0.63 0.57 0.52 0.49 0.45 0.41 0.39 0.39 0.41 0.41 0.41 0.40 0.41 0.40 0.41 0.39 0.38 0.39 0.37 0.38 0.38 0.36
0.58 0.54 0.49 0.46 0.42 0.39 0.41 0.42 0.43 0.42 0.41 0.42 0.44 0.45 0.45 0.43 0.40 0.38 0.35 0.34 0.34 0.32
0.51 0.48 0.45 0.41 0.38 0.40 0.42 0.43 0.44 0.43 0.42 0.43 0.43 0.44 0.42 0.41 0.39 0.37 0.35 0.34 0.30 0.28
0.45 0.44 0.44 0.44 0.43 0.42 0.43 0.45 0.44 0.42 0.41 0.39 0.41 0.40 0.38 0.38 0.35 0.33 0.31 0.30 0.28 0.25
0.45 0.44 0.43 0.41 0.42 0.43 0.41 0.43 0.42 0.41 0.42 0.41 0.41 0.37 0.36 0.34 0.33 0.30 0.27 0.26 0.24 0.22
0.36 0.35 0.35 0.34 0.32 0.33 0.37 0.39 0.40 0.39 0.38 0.38 0.39 0.37 0.36 0.34 0.31 0.29 0.27 0.24 0.23 0.21
0.31 0.28 0.28 0.28 0.27 0.28 0.30 0.34 0.38 0.39 0.39 0.40 0.42 0.38 0.34 0.34 0.31 0.28 0.26 0.24 0.23 0.22
0.29 0.29 0.28 0.27 0.27 0.28 0.32 0.35 0.38 0.39 0.39 0.41 0.39 0.36 0.35 0.33 0.30 0.27 0.24 0.23 0.23 0.23
0.28 0.27 0.28 0.28 0.28 0.30 0.33 0.35 0.36 0.35 0.36 0.34 0.36 0.35 0.34 0.32 0.29 0.24 0.22 0.21 0.22 0.22
0.27 0.27 0.28 0.30 0.30 0.31 0.32 0.34 0.32 0.32 0.32 0.32 0.30 0.31 0.31 0.28 0.23 0.21 0.20 0.19 0.18 0.17
0.27 0.28 0.30 0.30 0.30 0.31 0.32 0.32 0.30 0.31 0.30 0.29 0.30 0.30 0.25 0.24 0.21 0.20 0.19 0.18 0.18 0.19
0.28 0.28 0.30 0.30 0.31 0.33 0.33 0.34 0.33 0.31 0.31 0.30 0.27 0.24 0.23 0.22 0.20 0.18 0.18 0.18 0.19 0.20
0.29 0.30 0.30 0.32 0.32 0.34 0.34 0.33 0.33 0.33 0.32 0.29 0.23 0.22 0.22 0.22 0.20 0.18 0.18 0.18 0.19 0.20
0.30 0.30 0.33 0.32 0.33 0.31 0.33 0.34 0.35 0.31 0.28 0.24 0.23 0.22 0.23 0.22 0.21 0.19 0.18 0.17 0.18 0.20

GFSNIL_prec_pwat_045.txt.gz
Precipitable_Water
0.66 0.62 0.57 0.52 0.47 0.43 0.41 0.42 0.44 0.46 0.46 0.47 0.46 0.44 0.43 0.41 0.41 0.41 0.41 0.40 0.38 0.37
0.63 0.56 0.51 0.49 0.47 0.44 0.44 0.44 0.46 0.46 0.46 0.45 0.43 0.42 0.41 0.42 0.40 0.40 0.40 0.37 0.36 0.35
0.55 0.52 0.50 0.48 0.46 0.46 0.46 0.45 0.45 0.44 0.43 0.41 0.41 0.43 0.42 0.41 0.39 0.39 0.38 0.36 0.32 0.30
0.51 0.49 0.47 0.43 0.41 0.41 0.41 0.41 0.39 0.40 0.42 0.40 0.40 0.42 0.41 0.40 0.40 0.35 0.34 0.32 0.30 0.27
0.40 0.38 0.37 0.33 0.30 0.30 0.29 0.30 0.33 0.37 0.39 0.40 0.43 0.43 0.41 0.39 0.35 0.34 0.31 0.30 0.28 0.26
0.35 0.32 0.30 0.30 0.30 0.29 0.28 0.29 0.32 0.35 0.39 0.40 0.41 0.38 0.40 0.38 0.34 0.33 0.31 0.30 0.27 0.24
0.32 0.31 0.31 0.30 0.29 0.29 0.29 0.30 0.31 0.34 0.36 0.37 0.38 0.38 0.40 0.36 0.34 0.32 0.31 0.29 0.25 0.23
0.32 0.32 0.30 0.29 0.29 0.30 0.31 0.33 0.34 0.34 0.35 0.35 0.35 0.35 0.35 0.33 0.31 0.30 0.27 0.24 0.22 0.22
0.31 0.30 0.28 0.29 0.30 0.31 0.31 0.32 0.32 0.32 0.31 0.30 0.32 0.33 0.32 0.31 0.28 0.24 0.21 0.18 0.18 0.18
0.29 0.28 0.28 0.30 0.31 0.30 0.31 0.32 0.32 0.32 0.32 0.32 0.31 0.32 0.32 0.27 0.22 0.20 0.19 0.18 0.17 0.17
0.26 0.27 0.29 0.30 0.30 0.31 0.33 0.33 0.33 0.35 0.34 0.32 0.32 0.32 0.27 0.23 0.21 0.20 0.19 0.18 0.18 0.18
0.26 0.27 0.28 0.27 0.28 0.31 0.31 0.32 0.34 0.35 0.33 0.32 0.32 0.28 0.23 0.21 0.21 0.20 0.19 0.19 0.19 0.19
0.27 0.28 0.28 0.28 0.28 0.30 0.29 0.30 0.32 0.32 0.33 0.33 0.28 0.23 0.22 0.22 0.22 0.19 0.19 0.19 0.19 0.20
0.28 0.29 0.29 0.28 0.28 0.28 0.30 0.32 0.34 0.33 0.32 0.29 0.24 0.22 0.22 0.22 0.21 0.20 0.19 0.18 0.17 0.19

GFSNIL_prec_pwat_051.txt.gz
Precipitable_Water
0.74 0.71 0.70 0.72 0.66 0.56 0.51 0.51 0.53 0.52 0.50 0.49 0.50 0.51 0.51 0.49 0.53 0.52 0.50 0.48 0.48 0.46
0.72 0.74 0.75 0.64 0.59 0.54 0.52 0.49 0.46 0.45 0.45 0.43 0.42 0.42 0.45 0.45 0.48 0.49 0.47 0.47 0.47 0.43
0.72 0.71 0.64 0.57 0.51 0.47 0.45 0.42 0.39 0.37 0.35 0.34 0.36 0.38 0.39 0.41 0.46 0.48 0.46 0.46 0.41 0.38
0.68 0.57 0.50 0.47 0.45 0.43 0.42 0.39 0.37 0.34 0.34 0.34 0.35 0.37 0.38 0.40 0.42 0.38 0.37 0.35 0.37 0.36
0.54 0.49 0.45 0.43 0.42 0.42 0.40 0.39 0.37 0.35 0.35 0.35 0.35 0.36 0.36 0.36 0.36 0.33 0.33 0.37 0.38 0.36
0.47 0.43 0.41 0.40 0.41 0.41 0.40 0.38 0.37 0.37 0.36 0.36 0.37 0.36 0.34 0.34 0.34 0.34 0.35 0.35 0.34 0.33
0.41 0.41 0.41 0.42 0.41 0.40 0.39 0.38 0.38 0.37 0.37 0.35 0.35 0.35 0.34 0.33 0.33 0.33 0.34 0.35 0.34 0.30
0.40 0.41 0.41 0.41 0.41 0.40 0.39 0.39 0.38 0.38 0.36 0.37 0.35 0.35 0.32 0.33 0.34 0.33 0.33 0.33 0.27 0.23
0.38 0.38 0.38 0.38 0.39 0.38 0.38 0.38 0.38 0.36 0.36 0.36 0.36 0.35 0.34 0.32 0.32 0.32 0.31 0.25 0.22 0.22
0.37 0.36 0.34 0.34 0.34 0.36 0.36 0.36 0.36 0.35 0.34 0.35 0.38 0.37 0.35 0.32 0.32 0.31 0.26 0.23 0.22 0.22
0.37 0.34 0.33 0.34 0.34 0.35 0.35 0.34 0.32 0.33 0.34 0.32 0.39 0.36 0.33 0.32 0.31 0.26 0.24 0.24 0.23 0.21
0.35 0.34 0.34 0.33 0.33 0.33 0.33 0.33 0.30 0.31 0.33 0.32 0.37 0.34 0.32 0.31 0.26 0.24 0.23 0.23 0.23 0.22
0.35 0.33 0.33 0.32 0.30 0.31 0.32 0.30 0.30 0.30 0.33 0.35 0.34 0.34 0.33 0.28 0.23 0.23 0.22 0.22 0.22 0.22
0.35 0.34 0.32 0.31 0.31 0.30 0.30 0.30 0.29 0.29 0.31 0.33 0.35 0.34 0.30 0.27 0.22 0.22 0.22 0.21 0.20 0.21

GFSNIL_prec_pwat_054.txt.gz
Precipitable_Water
0.77 0.74 0.73 0.73 0.71 0.71 0.61 0.57 0.57 0.54 0.50 0.48 0.47 0.45 0.44 0.44 0.45 0.48 0.47 0.48 0.51 0.49
0.75 0.73 0.77 0.74 0.68 0.63 0.58 0.53 0.47 0.43 0.41 0.41 0.38 0.38 0.38 0.38 0.41 0.44 0.44 0.46 0.49 0.48
0.72 0.75 0.78 0.71 0.56 0.52 0.50 0.45 0.43 0.42 0.41 0.38 0.37 0.38 0.36 0.36 0.40 0.41 0.40 0.43 0.43 0.41
0.74 0.79 0.66 0.52 0.51 0.47 0.45 0.44 0.44 0.42 0.40 0.38 0.38 0.38 0.38 0.39 0.39 0.37 0.36 0.37 0.35 0.33
0.69 0.58 0.52 0.49 0.45 0.45 0.44 0.45 0.43 0.42 0.39 0.39 0.40 0.41 0.39 0.37 0.37 0.34 0.32 0.31 0.33 0.34
0.55 0.49 0.45 0.43 0.45 0.45 0.44 0.44 0.42 0.40 0.39 0.39 0.39 0.35 0.33 0.33 0.32 0.32 0.31 0.32 0.33 0.33
0.46 0.44 0.45 0.46 0.44 0.44 0.45 0.42 0.41 0.40 0.41 0.41 0.40 0.36 0.34 0.33 0.32 0.33 0.33 0.35 0.35 0.34
0.44 0.45 0.45 0.42 0.44 0.45 0.43 0.41 0.42 0.42 0.41 0.40 0.37 0.37 0.35 0.36 0.33 0.33 0.34 0.34 0.32 0.30
0.43 0.42 0.39 0.43 0.40 0.39 0.41 0.40 0.41 0.41 0.38 0.37 0.35 0.37 0.36 0.35 0.33 0.31 0.31 0.30 0.30 0.26
0.41 0.43 0.44 0.40 0.39 0.38 0.38 0.40 0.39 0.38 0.36 0.33 0.34 0.35 0.36 0.36 0.33 0.31 0.30 0.30 0.26 0.22
0.45 0.42 0.40 0.39 0.39 0.38 0.38 0.36 0.35 0.35 0.33 0.33 0.35 0.35 0.36 0.36 0.32 0.30 0.30 0.26 0.24 0.23
0.44 0.41 0.40 0.38 0.37 0.35 0.31 0.32 0.33 0.32 0.31 0.31 0.34 0.35 0.34 0.31 0.30 0.30 0.25 0.24 0.23 0.23
0.42 0.39 0.36 0.35 0.33 0.32 0.31 0.30 0.33 0.32 0.32 0.30 0.32 0.34 0.32 0.32 0.29 0.26 0.23 0.22 0.23 0.22
0.38 0.35 0.34 0.32 0.31 0.30 0.31 0.32 0.32 0.30 0.29 0.28 0.30 0.33 0.32 0.30 0.27 0.24 0.22 0.22 0.21 0.23

GFSNIL_prec_pwat_057.txt.gz
Precipitable_Water
0.82 0.80 0.79 0.76 0.72 0.73 0.75 0.72 0.61 0.50 0.48 0.46 0.43 0.41 0.38 0.37 0.36 0.39 0.43 0.45 0.44 0.44
0.80 0.77 0.73 0.73 0.73 0.82 0.75 0.59 0.50 0.48 0.44 0.41 0.39 0.38 0.38 0.36 0.35 0.40 0.41 0.41 0.42 0.41
0.76 0.75 0.77 0.77 0.73 0.67 0.53 0.47 0.46 0.44 0.43 0.42 0.40 0.40 0.41 0.39 0.40 0.40 0.40 0.39 0.38 0.36
0.74 0.76 0.74 0.67 0.65 0.54 0.47 0.46 0.45 0.45 0.44 0.43 0.41 0.41 0.40 0.39 0.39 0.39 0.40 0.40 0.38 0.35
0.74 0.67 0.65 0.60 0.53 0.47 0.46 0.47 0.45 0.46 0.44 0.42 0.42 0.41 0.39 0.37 0.34 0.31 0.30 0.31 0.31 0.31
0.65 0.58 0.56 0.53 0.46 0.47 0.45 0.45 0.48 0.45 0.43 0.43 0.43 0.41 0.40 0.37 0.33 0.31 0.30 0.31 0.31 0.32
0.53 0.55 0.52 0.46 0.45 0.43 0.47 0.48 0.46 0.46 0.43 0.43 0.42 0.41 0.40 0.36 0.32 0.32 0.34 0.33 0.33 0.33
0.51 0.51 0.45 0.43 0.44 0.45 0.47 0.45 0.45 0.44 0.44 0.42 0.41 0.40 0.37 0.35 0.34 0.34 0.33 0.33 0.31 0.30
0.49 0.43 0.45 0.44 0.49 0.46 0.45 0.43 0.41 0.41 0.41 0.39 0.39 0.37 0.33 0.32 0.32 0.34 0.36 0.31 0.30 0.30
0.46 0.47 0.50 0.50 0.47 0.44 0.40 0.39 0.38 0.38 0.37 0.35 0.35 0.35 0.31 0.34 0.32 0.31 0.34 0.30 0.30 0.29
0.53 0.53 0.49 0.44 0.38 0.35 0.34 0.32 0.33 0.33 0.34 0.32 0.32 0.33 0.31 0.33 0.34 0.31 0.30 0.30 0.29 0.24
0.53 0.46 0.40 0.34 0.33 0.33 0.32 0.29 0.28 0.29 0.30 0.30 0.30 0.32 0.31 0.32 0.30 0.28 0.29 0.29 0.26 0.23
0.47 0.39 0.35 0.33 0.32 0.32 0.31 0.29 0.29 0.29 0.31 0.30 0.29 0.31 0.31 0.31 0.29 0.27 0.27 0.26 0.24 0.23
0.40 0.34 0.32 0.31 0.31 0.30 0.30 0.30 0.29 0.28 0.30 0.30 0.29 0.28 0.30 0.31 0.30 0.27 0.25 0.23 0.22 0.23

GFSNIL_prec_pwat_060.txt.gz
Precipitable_Water
0.78 0.77 0.78 0.75 0.77 0.75 0.73 0.74 0.79 0.74 0.60 0.51 0.45 0.42 0.41 0.39 0.37 0.38 0.40 0.40 0.42 0.42
0.80 0.80 0.78 0.78 0.76 0.78 0.88 0.77 0.65 0.60 0.52 0.45 0.40 0.42 0.40 0.39 0.39 0.41 0.42 0.42 0.42 0.41
0.82 0.80 0.82 0.79 0.74 0.75 0.70 0.67 0.55 0.50 0.45 0.41 0.44 0.44 0.42 0.40 0.43 0.42 0.40 0.39 0.38 0.38
0.83 0.80 0.90 0.82 0.75 0.65 0.60 0.55 0.51 0.46 0.43 0.46 0.46 0.47 0.42 0.42 0.42 0.38 0.37 0.35 0.32 0.33
0.85 0.82 0.86 0.68 0.65 0.64 0.52 0.50 0.47 0.47 0.47 0.47 0.49 0.46 0.42 0.41 0.41 0.38 0.35 0.30 0.30 0.31
0.84 0.71 0.61 0.59 0.58 0.55 0.49 0.48 0.46 0.46 0.50 0.50 0.45 0.42 0.42 0.41 0.40 0.37 0.33 0.30 0.31 0.31
0.61 0.58 0.55 0.57 0.54 0.49 0.44 0.44 0.51 0.51 0.48 0.44 0.39 0.40 0.41 0.39 0.38 0.35 0.32 0.33 0.34 0.34
0.53 0.52 0.54 0.53 0.46 0.44 0.51 0.53 0.47 0.42 0.40 0.40 0.39 0.39 0.37 0.37 0.36 0.32 0.31 0.32 0.32 0.33
0.51 0.51 0.49 0.48 0.52 0.57 0.52 0.44 0.41 0.39 0.37 0.36 0.37 0.37 0.36 0.36 0.32 0.30 0.30 0.29 0.32 0.32
0.51 0.49 0.54 0.61 0.53 0.46 0.42 0.39 0.36 0.34 0.33 0.32 0.33 0.34 0.35 0.34 0.31 0.30 0.29 0.31 0.29 0.28
0.55 0.58 0.57 0.48 0.44 0.38 0.37 0.33 0.31 0.29 0.28 0.27 0.29 0.32 0.32 0.32 0.30 0.30 0.30 0.29 0.28 0.27
0.58 0.53 0.48 0.43 0.37 0.35 0.33 0.30 0.28 0.28 0.26 0.26 0.27 0.30 0.31 0.31 0.29 0.28 0.28 0.29 0.29 0.27
0.52 0.48 0.42 0.36 0.32 0.31 0.30 0.28 0.28 0.27 0.28 0.28 0.28 0.30 0.30 0.29 0.27 0.25 0.27 0.28 0.28 0.27
0.48 0.39 0.34 0.31 0.30 0.28 0.26 0.24 0.22 0.23 0.27 0.29 0.29 0.28 0.28 0.29 0.28 0.26 0.27 0.27 0.26 0.26

GFSNIL_prec_pwat_063.txt.gz
Precipitable_Water
0.93 0.83 0.82 0.81 0.80 0.82 0.78 0.83 0.82 0.85 0.75 0.61 0.56 0.50 0.47 0.41 0.37 0.39 0.41 0.42 0.44 0.43
0.89 0.85 0.80 0.81 0.86 0.83 0.87 0.92 0.88 0.71 0.62 0.51 0.49 0.49 0.45 0.40 0.41 0.45 0.45 0.43 0.41 0.39
0.87 0.84 0.84 0.85 0.86 0.87 0.89 0.84 0.70 0.58 0.56 0.51 0.46 0.46 0.45 0.48 0.48 0.45 0.42 0.40 0.37 0.34
0.83 0.83 0.84 0.81 0.87 0.89 0.82 0.68 0.60 0.53 0.51 0.47 0.47 0.50 0.53 0.49 0.43 0.39 0.38 0.37 0.34 0.30
0.82 0.83 0.81 0.90 0.85 0.71 0.67 0.60 0.55 0.52 0.48 0.45 0.52 0.54 0.44 0.39 0.40 0.38 0.37 0.35 0.32 0.28
0.87 0.85 0.81 0.73 0.68 0.61 0.55 0.55 0.52 0.49 0.49 0.52 0.47 0.45 0.43 0.39 0.38 0.37 0.36 0.34 0.30 0.28
0.83 0.79 0.69 0.59 0.55 0.56 0.55 0.50 0.51 0.53 0.51 0.48 0.44 0.40 0.39 0.38 0.36 0.35 0.34 0.33 0.30 0.29
0.71 0.60 0.54 0.52 0.54 0.52 0.51 0.55 0.57 0.51 0.46 0.42 0.38 0.37 0.36 0.34 0.33 0.32 0.30 0.29 0.29 0.29
0.57 0.52 0.51 0.53 0.54 0.54 0.60 0.55 0.48 0.43 0.38 0.35 0.33 0.33 0.32 0.31 0.30 0.29 0.27 0.26 0.28 0.30
0.51 0.52 0.54 0.55 0.57 0.58 0.48 0.45 0.40 0.37 0.33 0.29 0.27 0.27 0.28 0.30 0.29 0.28 0.28 0.28 0.28 0.28
0.56 0.56 0.57 0.57 0.56 0.48 0.44 0.40 0.36 0.31 0.28 0.26 0.25 0.26 0.27 0.29 0.29 0.29 0.28 0.27 0.29 0.27
0.58 0.58 0.60 0.52 0.49 0.44 0.36 0.32 0.29 0.27 0.25 0.24 0.23 0.26 0.28 0.29 0.29 0.27 0.26 0.28 0.29 0.29
0.59 0.60 0.52 0.47 0.39 0.33 0.30 0.28 0.26 0.23 0.23 0.23 0.23 0.26 0.28 0.29 0.28 0.26 0.26 0.28 0.28 0.30
0.56 0.51 0.43 0.34 0.31 0.29 0.27 0.24 0.22 0.21 0.23 0.23 0.23 0.24 0.27 0.29 0.29 0.26 0.26 0.26 0.26 0.29

GFSNIL_prec_pwat_066.txt.gz
Precipitable_Water
1.00 0.98 0.95 0.83 0.80 0.80 0.82 0.83 0.86 0.86 0.93 0.87 0.70 0.60 0.53 0.51 0.43 0.41 0.42 0.45 0.47 0.43
1.01 1.02 0.87 0.85 0.83 0.86 0.84 0.87 0.88 0.94 0.87 0.72 0.63 0.56 0.50 0.44 0.42 0.45 0.49 0.46 0.41 0.39
0.92 0.89 0.89 0.91 0.85 0.83 0.85 0.91 0.94 0.85 0.73 0.59 0.52 0.49 0.48 0.48 0.51 0.50 0.44 0.42 0.39 0.36
0.87 0.90 0.92 0.91 0.86 0.88 0.86 0.90 0.80 0.69 0.55 0.52 0.53 0.52 0.51 0.53 0.49 0.44 0.41 0.38 0.35 0.32
0.94 0.92 0.89 0.84 0.88 0.95 0.86 0.81 0.61 0.57 0.55 0.55 0.52 0.53 0.54 0.48 0.45 0.39 0.36 0.34 0.32 0.30
0.89 0.91 0.89 0.86 0.93 0.83 0.67 0.54 0.55 0.59 0.53 0.54 0.55 0.54 0.49 0.45 0.39 0.36 0.35 0.33 0.31 0.29
0.92 0.90 0.85 0.82 0.73 0.58 0.55 0.55 0.56 0.52 0.55 0.55 0.53 0.47 0.42 0.38 0.35 0.33 0.32 0.32 0.30 0.28
0.97 0.84 0.74 0.68 0.59 0.53 0.54 0.53 0.53 0.59 0.57 0.52 0.45 0.39 0.35 0.32 0.30 0.29 0.28 0.28 0.27 0.27
0.80 0.70 0.65 0.57 0.53 0.57 0.54 0.57 0.58 0.53 0.47 0.40 0.39 0.34 0.30 0.29 0.28 0.27 0.26 0.24 0.26 0.29
0.63 0.58 0.56 0.56 0.57 0.55 0.56 0.58 0.50 0.45 0.41 0.37 0.30 0.28 0.27 0.26 0.25 0.25 0.25 0.26 0.26 0.27
0.56 0.57 0.58 0.56 0.60 0.58 0.54 0.50 0.45 0.38 0.32 0.28 0.25 0.23 0.23 0.25 0.26 0.26 0.27 0.28 0.28 0.26
0.58 0.58 0.58 0.60 0.56 0.54 0.50 0.41 0.33 0.30 0.26 0.22 0.20 0.22 0.22 0.24 0.25 0.25 0.26 0.28 0.29 0.28
0.63 0.60 0.59 0.56 0.52 0.43 0.35 0.30 0.28 0.24 0.22 0.21 0.20 0.22 0.23 0.24 0.25 0.25 0.25 0.27 0.27 0.28
0.59 0.56 0.52 0.44 0.37 0.32 0.28 0.24 0.22 0.21 0.21 0.22 0.23 0.24 0.25 0.25 0.25 0.25 0.24 0.24 0.24 0.27

GFSNIL_prec_pwat_069.txt.gz
Precipitable_Water
1.17 1.21 1.15 0.95 0.92 0.84 0.82 0.84 0.87 0.86 0.86 0.88 0.93 0.81 0.67 0.57 0.51 0.47 0.46 0.49 0.51 0.48
1.18 1.14 1.01 1.02 0.91 0.87 0.89 0.88 0.87 0.88 0.88 0.95 0.83 0.67 0.56 0.50 0.50 0.51 0.52 0.51 0.47 0.43
1.11 1.08 1.06 0.98 0.92 0.92 0.93 0.92 0.92 0.90 0.94 0.86 0.65 0.55 0.55 0.54 0.53 0.52 0.51 0.47 0.44 0.41
1.00 1.01 1.01 1.01 0.99 0.98 0.95 0.96 0.96 0.94 0.81 0.63 0.54 0.59 0.56 0.53 0.53 0.52 0.48 0.45 0.41 0.37
0.98 1.00 1.04 1.03 1.00 0.96 0.94 1.00 0.91 0.75 0.60 0.58 0.57 0.56 0.54 0.53 0.53 0.48 0.44 0.40 0.36 0.32
1.07 1.06 1.03 0.99 1.03 0.92 0.93 0.84 0.72 0.60 0.58 0.56 0.56 0.56 0.55 0.54 0.48 0.44 0.39 0.35 0.33 0.30
1.04 1.01 0.98 0.97 0.98 0.84 0.75 0.70 0.61 0.60 0.54 0.57 0.58 0.57 0.52 0.46 0.43 0.37 0.32 0.31 0.30 0.29
0.99 0.96 0.97 0.91 0.78 0.69 0.71 0.61 0.52 0.54 0.59 0.57 0.52 0.48 0.43 0.40 0.32 0.28 0.27 0.28 0.28 0.28
0.87 0.93 0.82 0.68 0.65 0.66 0.57 0.56 0.62 0.60 0.57 0.50 0.46 0.40 0.34 0.28 0.26 0.25 0.24 0.24 0.26 0.28
0.72 0.63 0.57 0.59 0.61 0.55 0.59 0.64 0.58 0.54 0.49 0.42 0.37 0.31 0.25 0.23 0.24 0.24 0.24 0.25 0.26 0.27
0.59 0.57 0.58 0.62 0.60 0.64 0.60 0.56 0.51 0.45 0.38 0.34 0.28 0.23 0.22 0.22 0.23 0.23 0.24 0.26 0.27 0.28
0.59 0.57 0.62 0.63 0.60 0.57 0.53 0.46 0.39 0.35 0.31 0.26 0.23 0.23 0.23 0.23 0.24 0.24 0.24 0.27 0.28 0.29
0.60 0.62 0.59 0.57 0.53 0.47 0.40 0.36 0.33 0.27 0.25 0.25 0.24 0.26 0.27 0.27 0.29 0.28 0.27 0.27 0.26 0.26
0.57 0.58 0.54 0.48 0.42 0.38 0.34 0.31 0.27 0.25 0.25 0.26 0.27 0.27 0.28 0.29 0.29 0.28 0.27 0.27 0.25 0.25